FW0643 Weather Reports


Display with metric or nautical units.
time (UTC)temp
F
wind
direction
speed
MPH
gust
MPH
rain 1hr
in
rain 24hr
in
rain mn
in
humidity
%
barometer
mb
20240420123823 57 67 0.0 0.0 0.00 0.05 0.00 99 1021.0
20240420123722 56 67 0.0 0.0 0.00 0.05 0.00 99 1021.0
20240420122722 56 67 0.0 0.0 0.00 0.05 0.00 99 1021.1
20240420121821 56 67 0.0 0.0 0.00 0.05 0.00 99 1021.1
20240420115824 56 67 0.0 0.0 0.00 0.05 0.00 99 1021.1
20240420114923 56 67 0.0 0.0 0.00 0.05 0.00 99 1020.8
20240420113924 55 67 0.0 0.0 0.00 0.05 0.00 98 1020.6
20240420112923 55 67 0.0 0.0 0.00 0.05 0.00 98 1020.6
20240420111921 55 67 0.0 0.0 0.00 0.05 0.00 98 1020.7
20240420111021 55 67 0.0 0.0 0.00 0.05 0.00 98 1020.5
20240420105023 55 67 0.0 0.0 0.00 0.05 0.00 98 1020.6
20240420104038 54 67 0.0 0.0 0.00 0.05 0.00 98 1020.7
20240420103124 54 67 0.0 0.0 0.00 0.05 0.00 98 1020.8
20240420102121 54 67 0.0 0.0 0.00 0.05 0.00 99 1021.0
20240420101122 54 67 0.0 0.0 0.00 0.05 0.00 98 1020.9
20240420100123 54 67 0.0 0.0 0.00 0.05 0.00 98 1020.7
20240420095122 54 67 0.0 0.0 0.00 0.05 0.00 98 1020.6
20240420094122 54 67 0.0 0.0 0.00 0.05 0.00 98 1020.4
20240420093121 54 67 0.0 0.0 0.00 0.05 0.00 98 1020.5
20240420092121 54 67 0.0 0.0 0.00 0.05 0.00 98 1020.4
20240420091124 54 67 0.0 0.0 0.00 0.05 0.00 98 1020.1
20240420091022 54 67 0.0 0.0 0.00 0.05 0.00 98 1020.1
20240420090121 54 67 0.0 0.0 0.00 0.05 0.00 98 1020.1
20240420085122 54 67 0.0 1.0 0.00 0.05 0.00 98 1019.9
20240420084125 54 67 0.0 0.0 0.00 0.05 0.00 98 1020.0
20240420083124 54 360 1.0 1.0 0.00 0.05 0.00 97 1020.2
20240420082222 54 360 0.0 0.0 0.00 0.05 0.00 97 1020.1
20240420081223 54 360 0.0 0.0 0.00 0.05 0.00 97 1020.2
20240420080221 54 360 0.0 0.0 0.00 0.05 0.00 97 1020.4
20240420075223 53 360 0.0 0.0 0.00 0.05 0.00 97 1020.5
20240420073223 53 360 0.0 0.0 0.00 0.05 0.00 97 1020.5
20240420072239 53 360 0.0 0.0 0.00 0.05 0.00 97 1020.5
20240420071322 53 360 0.0 0.0 0.00 0.05 0.00 97 1020.5
20240420070322 53 360 0.0 0.0 0.00 0.05 0.00 97 1020.4
20240420070225 53 360 0.0 0.0 0.00 0.05 0.00 97 1020.4
20240420065222 53 360 0.0 0.0 0.00 0.05 0.00 97 1020.7
20240420063123 53 360 0.0 0.0 0.00 0.05 0.00 97 1020.9
20240420062222 53 360 0.0 0.0 0.00 0.05 0.00 97 1020.9
20240420055223 53 360 0.0 0.0 0.00 0.05 0.00 97 1021.3
20240420054222 53 360 0.0 0.0 0.00 0.05 0.00 97 1021.2
20240420053221 53 360 0.0 0.0 0.00 0.05 0.00 97 1021.4
20240420052223 53 360 0.0 0.0 0.00 0.05 0.00 97 1021.3
20240420051224 53 360 0.0 0.0 0.00 0.05 0.00 97 1021.4
20240420051121 53 360 0.0 0.0 0.00 0.05 0.00 97 1021.4
20240420050123 53 360 0.0 0.0 0.00 0.05 0.00 97 1021.5
20240420045124 53 360 0.0 0.0 0.00 0.05 0.00 97 1021.8
20240420044122 53 360 0.0 0.0 0.00 0.05 0.00 97 1021.7
20240420044021 53 360 0.0 0.0 0.00 0.05 0.00 97 1021.8
20240420043023 53 360 0.0 0.0 0.00 0.05 0.00 97 1021.9
20240420042122 53 360 0.0 0.0 0.00 0.05 0.00 97 1021.9
20240420041221 52 360 0.0 0.0 0.00 0.05 0.00 97 1022.0
20240420040223 52 360 0.0 1.0 0.00 0.05 0.00 97 1021.8
20240420035244 52 360 0.0 0.0 0.00 0.05 0.05 97 1021.8
20240420034341 52 360 0.0 1.0 0.00 0.05 0.05 97 1021.6
20240420032344 52 337 0.0 0.0 0.00 0.05 0.05 96 1021.6
20240420031358 52 22 0.0 0.0 0.00 0.05 0.05 96 1021.5
20240420030343 52 337 0.0 1.0 0.00 0.05 0.05 96 1021.7
20240420025441 52 22 0.0 0.0 0.00 0.05 0.05 96 1021.8
20240420024441 52 22 0.0 0.0 0.00 0.05 0.05 95 1022.2
20240420022445 52 45 0.0 0.0 0.05 0.05 0.05 95 1022.2
20240420020545 52 360 0.0 0.0 0.05 0.05 0.05 95 1022.1
20240420020442 52 360 0.0 0.0 0.05 0.05 0.05 95 1022.2
20240420015444 52 360 0.0 0.0 0.05 0.05 0.05 94 1022.5
20240420014541 52 360 0.0 0.0 0.05 0.05 0.05 94 1022.7
20240420013541 52 337 0.0 0.0 0.04 0.04 0.03 93 1022.4
20240420012542 52 360 0.0 0.0 0.00 0.00 0.00 91 1022.2
20240420011443 52 292 0.0 0.0 0.00 0.00 0.00 91 1022.5
20240420010543 52 292 0.0 1.0 0.00 0.00 0.00 90 1022.4
20240420005542 52 180 0.0 1.0 0.00 0.00 0.00 90 1022.4
20240420004542 52 360 0.0 0.0 0.00 0.00 0.00 90 1022.7
20240420003543 52 22 0.0 0.0 0.00 0.00 0.00 90 1022.7
20240420002542 53 349 2.0 3.0 0.00 0.00 0.00 90 1022.6
20240420001542 53 67 0.0 1.0 0.00 0.00 0.00 89 1022.2
20240420000541 53 270 0.0 1.0 0.00 0.00 0.00 88 1022.5
20240419235542 53 270 0.0 0.0 0.00 0.00 0.00 88 1022.3
20240419234641 53 3 1.0 3.0 0.00 0.00 0.00 87 1022.2
20240419233643 54 22 0.0 2.0 0.00 0.00 0.00 86 1022.0
20240419232643 54 202 0.0 0.0 0.00 0.00 0.00 86 1022.1
20240419231742 54 22 0.0 0.0 0.00 0.00 0.00 85 1022.2
20240419230841 55 337 1.0 3.0 0.00 0.00 0.00 84 1022.0
20240419225842 55 90 0.0 2.0 0.00 0.00 0.00 84 1021.7
20240419223843 56 285 0.0 2.0 0.00 0.00 0.00 82 1021.6
20240419222843 57 14 2.0 4.0 0.00 0.00 0.00 80 1021.6
20240419220941 59 270 0.0 1.0 0.00 0.00 0.00 78 1021.8
20240419215941 59 44 1.0 2.0 0.00 0.00 0.00 77 1021.8
20240419214942 60 10 1.0 3.0 0.00 0.00 0.00 75 1021.8
20240419214041 61 282 0.0 1.0 0.00 0.00 0.00 74 1021.9
20240419213041 62 12 2.0 3.0 0.00 0.00 0.00 73 1021.7
20240419212044 62 353 1.0 3.0 0.00 0.00 0.00 73 1021.7
20240419210044 62 144 2.0 4.0 0.00 0.00 0.00 73 1021.6
20240419205042 62 74 0.0 2.0 0.00 0.00 0.00 73 1021.7
20240419204941 62 282 1.0 4.0 0.00 0.00 0.00 73 1021.7
20240419203942 62 157 1.0 3.0 0.00 0.00 0.00 73 1021.7
20240419203842 62 240 0.0 1.0 0.00 0.00 0.00 73 1021.7
20240419202842 62 202 1.0 2.0 0.00 0.00 0.00 73 1021.6
20240419201842 62 17 1.0 3.0 0.00 0.00 0.00 72 1021.8
20240419200842 62 157 1.0 2.0 0.00 0.00 0.00 73 1021.7
20240419195843 62 225 0.0 0.0 0.00 0.00 0.00 74 1021.6
20240419194842 62 20 2.0 3.0 0.00 0.00 0.00 74 1021.6
20240419193843 62 157 0.0 2.0 0.00 0.00 0.00 74 1021.8
20240419192941 61 39 0.0 0.0 0.00 0.00 0.00 74 1021.9
20240419192842 61 22 0.0 1.0 0.00 0.00 0.00 74 1021.9
20240419190944 61 360 1.0 4.0 0.00 0.00 0.00 74 1021.9
20240419185942 61 237 1.0 3.0 0.00 0.00 0.00 75 1022.1
20240419185041 61 315 1.0 2.0 0.00 0.00 0.00 76 1022.4
20240419184044 60 103 0.0 1.0 0.00 0.00 0.00 76 1022.7
20240419182042 59 253 1.0 2.0 0.00 0.00 0.00 77 1023.0
20240419181042 59 321 1.0 2.0 0.00 0.00 0.00 77 1023.0
20240419180042 59 66 1.0 2.0 0.00 0.00 0.00 78 1023.1
20240419175141 59 323 2.0 3.0 0.00 0.00 0.00 78 1023.2
20240419174142 59 356 4.0 5.0 0.00 0.00 0.00 78 1023.4
20240419173143 59 48 1.0 2.0 0.00 0.00 0.00 77 1023.4
20240419172040 58 315 0.0 1.0 0.00 0.00 0.00 78 1023.8
20240419170140 58 192 0.0 1.0 0.00 0.00 0.00 79 1024.0
20240419165143 57 232 1.0 4.0 0.00 0.00 0.00 80 1023.8
20240419164142 57 58 1.0 2.0 0.00 0.00 0.00 82 1024.0
20240419163142 56 5 2.0 4.0 0.00 0.00 0.00 82 1024.4
20240419162143 56 155 1.0 3.0 0.00 0.00 0.00 82 1024.3
20240419161241 55 25 1.0 3.0 0.00 0.00 0.00 82 1024.6
20240419160242 55 56 1.0 3.0 0.00 0.00 0.00 84 1024.6
20240419155242 54 24 1.0 2.0 0.00 0.00 0.00 85 1024.8
20240419153243 54 349 2.0 3.0 0.00 0.00 0.00 85 1024.7
20240419152242 54 337 0.0 3.0 0.00 0.00 0.00 85 1024.7
20240419151340 54 358 0.0 0.0 0.00 0.00 0.00 86 1024.9
20240419150344 54 36 1.0 2.0 0.00 0.00 0.00 87 1025.1
20240419145441 53 360 0.0 1.0 0.00 0.00 0.00 88 1025.1
20240419144443 53 9 1.0 2.0 0.00 0.00 0.00 88 1025.1
20240419142543 52 235 0.0 1.0 0.00 0.00 0.00 88 1025.4
20240419141641 53 10 0.0 2.0 0.00 0.00 0.00 88 1025.3
20240419141542 53 67 0.0 1.0 0.00 0.00 0.00 88 1025.3
20240419140544 52 180 0.0 1.0 0.00 0.00 0.00 89 1025.3
20240419134642 52 180 0.0 0.0 0.00 0.00 0.00 89 1025.2
20240419133641 51 65 0.0 2.0 0.00 0.00 0.00 90 1025.0
20240419133541 51 360 1.0 2.0 0.00 0.00 0.00 90 1025.0
20240419132541 51 194 0.0 1.0 0.00 0.00 0.00 90 1024.8
20240419131541 51 154 1.0 4.0 0.00 0.00 0.00 91 1024.7
20240419125641 51 62 0.0 2.0 0.00 0.00 0.00 92 1024.7
20240419124641 51 314 1.0 2.0 0.00 0.00 0.00 92 1024.6